{"data":{"norad_id":60024,"epoch":"2026-05-24T23:24:17.901216Z","epoch_age_seconds":73255,"freshness":"FRESH","line1":"1 60024U 24111J   26144.97520719 -.00000520  00000+0 -54411-5 0  9996","line2":"2 60024  53.1606  81.2529 0001219  88.1519 271.9622 15.30195650110711","mean_motion":15.3019565,"eccentricity":0.0001219,"inclination_deg":53.1606,"raan_deg":81.2529,"arg_perigee_deg":88.1519,"mean_anomaly_deg":271.9622,"bstar":-5.4411e-6,"rev_number":11071,"period_min":94.105613226649,"perigee_km":474.39263256546,"apogee_km":476.06348296654,"semimajor_km":6853.365057766,"source":"CELESTRAK","updated_at":"2026-05-25T13:38:19.132541Z"}}